ACA37 CYVR-YSSY

Flight info

Callsign ACA37
Flight time N/A
Altitude 32000
Route PITUT DCT 48N130W 46N135W 40N145W 33N152W 29N155W/N0487F340 DCT ZIGIE DCT CARRP/N0486F330 DCT 1700N15940W/N0490F340 DCT DASNE DCT 04N165W DCT WOOBY/N0485F360 B581 GOMIK DCT ANBAT DCT DUNAK/N0479F380 B450 TEKEP DCT SOTKI G595 ATNAT DCT RIKNI N774 TESAT
Aircraft B77W/H-SDE1E2E3FGHIJ2J3J4J5M1RWXY/LB1D1

Departure

Time N/A
Airport Vancouver International Airport (CYVR)

Arrival

Time 2026-04-26 17:02
Airport Sydney Kingsford Smith International Airport (YSSY)
Time Latitude Longitude Altitude Speed Heading
2026-04-26 14:08 -25.76246 173.48667 31977 ft 458 kts 245°
2026-04-26 14:08 -25.79293 173.43860 31978 ft 458 kts 245°
2026-04-26 14:09 -25.83552 173.37120 31987 ft 458 kts 245°
2026-04-26 14:09 -25.87204 173.31307 31981 ft 457 kts 245°
2026-04-26 14:10 -25.90226 173.26479 31982 ft 456 kts 245°
2026-04-26 14:10 -25.93847 173.20680 32412 ft 459 kts 246°
2026-04-26 14:10 -25.95661 173.17780 32870 ft 455 kts 246°
2026-04-26 14:11 -25.99829 173.11118 34015 ft 447 kts 246°
2026-04-26 14:11 -26.01000 173.09241 34247 ft 446 kts 246°
2026-04-26 14:11 -26.02769 173.06401 34539 ft 445 kts 246°
2026-04-26 14:12 -26.04532 173.03565 34788 ft 445 kts 246°
2026-04-26 14:12 -26.06291 173.00736 35073 ft 444 kts 246°
2026-04-26 14:12 -26.07993 172.97998 35368 ft 443 kts 246°
2026-04-26 14:12 -26.09749 172.95171 35684 ft 443 kts 246°
2026-04-26 14:13 -26.13237 172.89548 35923 ft 445 kts 246°
2026-04-26 14:13 -26.14997 172.86710 35972 ft 444 kts 246°
2026-04-26 14:14 -26.18505 172.81056 35987 ft 442 kts 246°
2026-04-26 14:14 -26.21997 172.75420 35995 ft 440 kts 246°
2026-04-26 14:15 -26.25455 172.69827 35993 ft 439 kts 246°
2026-04-26 14:15 -26.28914 172.64225 35995 ft 439 kts 246°
2026-04-26 14:16 -26.32366 172.58627 36000 ft 439 kts 246°
2026-04-26 14:16 -26.35844 172.52980 35998 ft 440 kts 246°
2026-04-26 14:17 -26.39295 172.47369 36006 ft 442 kts 246°
2026-04-26 14:17 -26.42783 172.41694 36013 ft 443 kts 246°
2026-04-26 14:18 -26.46256 172.36037 36010 ft 444 kts 246°
2026-04-26 14:18 -26.49753 172.30335 36004 ft 444 kts 246°
2026-04-26 14:19 -26.53243 172.24637 36007 ft 444 kts 246°
2026-04-26 14:19 -26.56709 172.18969 36013 ft 443 kts 246°
2026-04-26 14:20 -26.60193 172.13265 36011 ft 443 kts 246°
2026-04-26 14:20 -26.63646 172.07605 36014 ft 443 kts 246°
2026-04-26 14:21 -26.67120 172.01899 36041 ft 443 kts 245°
2026-04-26 14:21 -26.70531 171.96291 36019 ft 444 kts 245°
2026-04-26 14:22 -26.73991 171.90602 36019 ft 444 kts 245°
2026-04-26 14:22 -26.77468 171.84873 36021 ft 444 kts 245°
2026-04-26 14:23 -26.80941 171.79144 36022 ft 444 kts 245°
2026-04-26 14:23 -26.84386 171.73454 36021 ft 444 kts 245°
2026-04-26 14:24 -26.87856 171.67713 36026 ft 444 kts 245°
2026-04-26 14:24 -26.91315 171.61985 36036 ft 444 kts 245°
2026-04-26 14:25 -26.94758 171.56275 36033 ft 445 kts 245°
2026-04-26 14:25 -26.98232 171.50506 36033 ft 446 kts 245°
2026-04-26 14:26 -27.01705 171.44732 36027 ft 447 kts 245°
2026-04-26 14:26 -27.05189 171.38934 36028 ft 447 kts 245°
2026-04-26 14:27 -27.08651 171.33164 36031 ft 447 kts 245°
2026-04-26 14:27 -27.12124 171.27368 36050 ft 448 kts 244°
2026-04-26 14:28 -27.15604 171.21549 36037 ft 449 kts 244°
2026-04-26 14:28 -27.19089 171.15720 36031 ft 449 kts 244°
2026-04-26 14:29 -27.22562 171.09899 36039 ft 450 kts 244°
2026-04-26 14:29 -27.26053 171.04043 36029 ft 451 kts 244°
2026-04-26 14:30 -27.29475 170.98295 36032 ft 452 kts 244°
2026-04-26 14:30 -27.32976 170.92405 36036 ft 452 kts 244°
2026-04-26 14:31 -27.36472 170.86517 36033 ft 452 kts 244°
2026-04-26 14:31 -27.39959 170.80636 36030 ft 452 kts 244°
2026-04-26 14:32 -27.43455 170.74733 36036 ft 452 kts 244°
2026-04-26 14:32 -27.46921 170.68871 36039 ft 452 kts 244°
2026-04-26 14:33 -27.50402 170.62977 36047 ft 452 kts 244°
2026-04-26 14:33 -27.53882 170.57075 36041 ft 451 kts 244°
2026-04-26 14:34 -27.57361 170.51166 36052 ft 451 kts 243°
2026-04-26 14:34 -27.60814 170.45294 36041 ft 452 kts 243°
2026-04-26 14:35 -27.64286 170.39383 36034 ft 452 kts 243°
2026-04-26 14:35 -27.67756 170.33467 36036 ft 452 kts 243°
2026-04-26 14:36 -27.71232 170.27534 36038 ft 452 kts 244°
2026-04-26 14:36 -27.74686 170.21626 36048 ft 453 kts 243°
2026-04-26 14:37 -27.78142 170.15711 36052 ft 453 kts 243°
2026-04-26 14:37 -27.81626 170.09738 36043 ft 454 kts 243°
2026-04-26 14:38 -27.85082 170.03805 36047 ft 454 kts 243°
2026-04-26 14:38 -27.88508 169.97916 36046 ft 454 kts 243°
2026-04-26 14:39 -27.91960 169.91975 36044 ft 454 kts 243°
2026-04-26 14:39 -27.95440 169.85976 36046 ft 454 kts 243°
2026-04-26 14:40 -27.98886 169.80028 36050 ft 454 kts 243°
2026-04-26 14:40 -28.02355 169.74032 36054 ft 455 kts 243°
2026-04-26 14:41 -28.05814 169.68044 36055 ft 456 kts 243°
2026-04-26 14:41 -28.09291 169.62017 36049 ft 457 kts 243°
2026-04-26 14:42 -28.12768 169.55982 36053 ft 457 kts 243°
2026-04-26 14:42 -28.16238 169.49950 36057 ft 457 kts 243°
2026-04-26 14:43 -28.19715 169.43899 36056 ft 457 kts 243°
2026-04-26 14:43 -28.23172 169.37872 36061 ft 458 kts 243°
2026-04-26 14:44 -28.26654 169.31795 36078 ft 458 kts 243°
2026-04-26 14:44 -28.30107 169.25757 36068 ft 458 kts 243°
2026-04-26 14:45 -28.33577 169.19684 36067 ft 458 kts 244°
2026-04-26 14:45 -28.37047 169.13600 36070 ft 458 kts 244°
2026-04-26 14:46 -28.40494 169.07548 36073 ft 458 kts 244°
2026-04-26 14:46 -28.43958 169.01460 36067 ft 458 kts 244°
2026-04-26 14:47 -28.47368 168.95456 36075 ft 458 kts 244°
2026-04-26 14:47 -28.50803 168.89398 36099 ft 458 kts 243°
2026-04-26 14:48 -28.54263 168.83289 36073 ft 459 kts 244°
2026-04-26 14:48 -28.57729 168.77160 36077 ft 459 kts 244°
2026-04-26 14:49 -28.61165 168.71074 36076 ft 460 kts 244°
2026-04-26 14:49 -28.64624 168.64940 36086 ft 460 kts 243°
2026-04-26 14:50 -28.68088 168.58788 36081 ft 461 kts 244°
2026-04-26 14:50 -28.71538 168.52651 36089 ft 461 kts 244°
2026-04-26 14:51 -28.75002 168.46483 36088 ft 461 kts 244°
2026-04-26 14:51 -28.78461 168.40311 36095 ft 462 kts 243°
2026-04-26 14:52 -28.81896 168.34176 36089 ft 462 kts 243°
2026-04-26 14:52 -28.85354 168.27988 36102 ft 462 kts 243°
2026-04-26 14:53 -28.88806 168.21803 36104 ft 462 kts 243°
2026-04-26 14:53 -28.92266 168.15594 36115 ft 462 kts 243°
2026-04-26 14:54 -28.95696 168.09430 36119 ft 462 kts 243°
2026-04-26 14:54 -28.99146 168.03219 36131 ft 462 kts 243°
2026-04-26 14:55 -29.02513 167.97150 36139 ft 462 kts 243°
2026-04-26 14:55 -29.05531 167.90716 36141 ft 456 kts 252°
2026-04-26 14:56 -29.07688 167.83913 36138 ft 454 kts 255°
2026-04-26 14:56 -29.09776 167.77139 36112 ft 454 kts 255°
2026-04-26 14:57 -29.11897 167.70314 36103 ft 455 kts 255°
2026-04-26 14:57 -29.13671 167.64634 36115 ft 455 kts 255°
2026-04-26 14:58 -29.15794 167.57840 36134 ft 456 kts 255°
2026-04-26 14:58 -29.17928 167.50999 36112 ft 456 kts 255°
2026-04-26 14:59 -29.20052 167.44177 36113 ft 456 kts 255°
2026-04-26 14:59 -29.22184 167.37312 36124 ft 456 kts 255°
2026-04-26 15:00 -29.24302 167.30480 36123 ft 456 kts 254°
2026-04-26 15:00 -29.26421 167.23625 36127 ft 456 kts 254°
2026-04-26 15:01 -29.28528 167.16800 36129 ft 457 kts 254°
2026-04-26 15:01 -29.30648 167.09917 36125 ft 457 kts 254°
2026-04-26 15:02 -29.32751 167.03077 36131 ft 457 kts 254°
2026-04-26 15:02 -29.34829 166.96301 36130 ft 457 kts 254°
2026-04-26 15:03 -29.36921 166.89468 36130 ft 457 kts 254°
2026-04-26 15:03 -29.39026 166.82575 36129 ft 458 kts 254°
2026-04-26 15:04 -29.41133 166.75664 36138 ft 458 kts 254°
2026-04-26 15:04 -29.43222 166.68795 36137 ft 459 kts 254°
2026-04-26 15:05 -29.45326 166.61863 36139 ft 460 kts 254°
2026-04-26 15:05 -29.47425 166.54934 36134 ft 460 kts 254°
2026-04-26 15:06 -29.49526 166.47980 36138 ft 461 kts 254°
2026-04-26 15:06 -29.51625 166.41022 36136 ft 462 kts 254°
2026-04-26 15:07 -29.54766 166.30579 36136 ft 462 kts 254°
2026-04-26 15:07 -29.56867 166.23576 36144 ft 463 kts 254°
2026-04-26 15:08 -29.58952 166.16610 36141 ft 463 kts 254°
2026-04-26 15:08 -29.61047 166.09598 36147 ft 462 kts 255°
2026-04-26 15:09 -29.63134 166.02596 36139 ft 461 kts 255°
2026-04-26 15:09 -29.65165 165.95769 36158 ft 460 kts 255°
2026-04-26 15:10 -29.66885 165.89974 36147 ft 459 kts 255°
2026-04-26 15:10 -29.69283 165.81876 36149 ft 458 kts 255°
2026-04-26 15:11 -29.71338 165.74921 36150 ft 457 kts 254°
2026-04-26 15:11 -29.73371 165.68026 36151 ft 457 kts 255°
2026-04-26 15:12 -29.75411 165.61092 36154 ft 457 kts 255°
2026-04-26 15:12 -29.77444 165.54166 36152 ft 457 kts 255°
2026-04-26 15:13 -29.79480 165.47213 36153 ft 458 kts 255°
2026-04-26 15:13 -29.81503 165.40293 36158 ft 458 kts 255°
2026-04-26 15:14 -29.83540 165.33308 36158 ft 459 kts 255°
2026-04-26 15:14 -29.85569 165.26335 36158 ft 459 kts 255°
2026-04-26 15:15 -29.87600 165.19341 36158 ft 459 kts 255°
2026-04-26 15:15 -29.89614 165.12388 36160 ft 459 kts 255°
2026-04-26 15:16 -29.91638 165.05386 36167 ft 459 kts 255°
2026-04-26 15:16 -29.93625 164.98497 36160 ft 459 kts 255°
2026-04-26 15:17 -29.95287 164.92724 36158 ft 459 kts 255°
2026-04-26 15:17 -29.97635 164.84549 36158 ft 459 kts 255°
2026-04-26 15:18 -29.99629 164.77589 36162 ft 458 kts 255°
2026-04-26 15:18 -30.01624 164.70608 36168 ft 458 kts 255°
2026-04-26 15:19 -30.03616 164.63623 36160 ft 458 kts 255°
2026-04-26 15:19 -30.05608 164.56624 36172 ft 459 kts 255°
2026-04-26 15:20 -30.07602 164.49601 36169 ft 459 kts 255°
2026-04-26 15:20 -30.09576 164.42633 36166 ft 459 kts 255°
2026-04-26 15:21 -30.11563 164.35601 36165 ft 459 kts 255°
2026-04-26 15:21 -30.13546 164.28569 36167 ft 460 kts 255°
2026-04-26 15:22 -30.15515 164.21570 36165 ft 460 kts 255°
2026-04-26 15:22 -30.17492 164.14527 36164 ft 460 kts 255°
2026-04-26 15:23 -30.19451 164.07534 36162 ft 460 kts 255°
2026-04-26 15:23 -30.21421 164.00483 36170 ft 460 kts 255°
2026-04-26 15:24 -30.23360 163.93528 36172 ft 460 kts 255°
2026-04-26 15:24 -30.25316 163.86494 36178 ft 461 kts 255°
2026-04-26 15:25 -30.26950 163.80606 36172 ft 461 kts 255°
2026-04-26 15:25 -30.29226 163.72384 36180 ft 461 kts 255°
2026-04-26 15:26 -30.31172 163.65338 36180 ft 461 kts 255°
2026-04-26 15:26 -30.33131 163.58230 36175 ft 462 kts 255°
2026-04-26 15:27 -30.35084 163.51125 36178 ft 463 kts 255°
2026-04-26 15:27 -30.37024 163.44050 36177 ft 463 kts 255°
2026-04-26 15:28 -30.38973 163.36925 36177 ft 464 kts 255°
2026-04-26 15:28 -30.40922 163.29784 36186 ft 464 kts 255°
2026-04-26 15:29 -30.42858 163.22676 36194 ft 465 kts 255°
2026-04-26 15:30 -30.46742 163.08360 36185 ft 466 kts 255°
2026-04-26 15:30 -30.48745 163.01180 36174 ft 467 kts 252°
2026-04-26 15:31 -30.53110 162.91181 36196 ft 471 kts 244°
2026-04-26 15:32 -30.56858 162.83421 36181 ft 471 kts 244°
2026-04-26 15:32 -30.61072 162.74586 36189 ft 471 kts 244°
2026-04-26 15:33 -30.64235 162.67902 36191 ft 470 kts 245°
2026-04-26 15:33 -30.67379 162.61238 36193 ft 470 kts 245°
2026-04-26 15:34 -30.70498 162.54616 36193 ft 469 kts 245°
2026-04-26 15:34 -30.73637 162.47943 36187 ft 469 kts 245°
2026-04-26 15:35 -30.76765 162.41282 36196 ft 468 kts 245°
2026-04-26 15:35 -30.79874 162.34651 36198 ft 468 kts 245°
2026-04-26 15:36 -30.82994 162.27984 36196 ft 468 kts 245°
2026-04-26 15:36 -30.86092 162.21352 36206 ft 468 kts 245°
2026-04-26 15:37 -30.89204 162.14678 36199 ft 469 kts 245°
2026-04-26 15:37 -30.92303 162.08021 36200 ft 469 kts 245°
2026-04-26 15:38 -30.95414 162.01326 36199 ft 469 kts 245°
2026-04-26 15:38 -30.98473 161.94734 36199 ft 469 kts 245°
2026-04-26 15:39 -31.01554 161.88081 36202 ft 469 kts 245°
2026-04-26 15:39 -31.03627 161.83597 36202 ft 469 kts 245°
2026-04-26 15:40 -31.07696 161.74784 36200 ft 469 kts 245°
2026-04-26 15:40 -31.09225 161.71462 36072 ft 469 kts 242°
2026-04-26 15:40 -31.10765 161.68116 36206 ft 467 kts 245°
2026-04-26 15:41 -31.13850 161.61411 36206 ft 468 kts 245°
2026-04-26 15:41 -31.16922 161.54720 36209 ft 469 kts 245°
2026-04-26 15:42 -31.20009 161.47983 36207 ft 470 kts 245°
2026-04-26 15:42 -31.23081 161.41268 36207 ft 470 kts 245°
2026-04-26 15:43 -31.25652 161.35636 36215 ft 470 kts 245°
2026-04-26 15:44 -31.34928 161.15257 36213 ft 469 kts 245°
2026-04-26 15:45 -31.39498 161.05171 36214 ft 469 kts 245°
2026-04-26 15:46 -31.44029 160.95146 36219 ft 469 kts 245°
2026-04-26 15:46 -31.46565 160.89525 36213 ft 469 kts 245°
2026-04-26 15:47 -31.51642 160.78243 36213 ft 470 kts 244°
2026-04-26 15:48 -31.54699 160.71434 36218 ft 470 kts 244°
2026-04-26 15:48 -31.57729 160.64672 36217 ft 470 kts 245°
2026-04-26 15:49 -31.60759 160.57899 36223 ft 470 kts 245°
2026-04-26 15:49 -31.63800 160.51087 36223 ft 471 kts 244°
2026-04-26 15:50 -31.66839 160.44269 36226 ft 471 kts 244°
2026-04-26 15:50 -31.69859 160.37479 36223 ft 471 kts 244°
2026-04-26 15:51 -31.72896 160.30639 36226 ft 472 kts 244°
2026-04-26 15:51 -31.75934 160.23785 36227 ft 472 kts 244°
2026-04-26 15:52 -31.78943 160.16982 36225 ft 472 kts 244°
2026-04-26 15:52 -31.81971 160.10125 36226 ft 471 kts 244°
2026-04-26 15:53 -31.84992 160.03271 36219 ft 471 kts 244°
2026-04-26 15:53 -31.87960 159.96523 36231 ft 471 kts 244°
2026-04-26 15:54 -31.90949 159.89703 36219 ft 471 kts 244°
2026-04-26 15:54 -31.93957 159.82843 36225 ft 471 kts 244°
2026-04-26 15:55 -31.96966 159.75974 36226 ft 471 kts 244°
2026-04-26 15:55 -31.99951 159.69140 36230 ft 471 kts 244°
2026-04-26 15:56 -32.02945 159.62268 36226 ft 472 kts 244°
2026-04-26 15:56 -32.05943 159.55376 36231 ft 472 kts 244°
2026-04-26 15:57 -32.08925 159.48506 36228 ft 473 kts 244°
2026-04-26 15:57 -32.11926 159.41582 36234 ft 474 kts 244°
2026-04-26 15:58 -32.14909 159.34684 36231 ft 474 kts 244°
2026-04-26 15:58 -32.17907 159.27739 36236 ft 474 kts 244°
2026-04-26 15:59 -32.20910 159.20768 36221 ft 475 kts 243°
2026-04-26 15:59 -32.23892 159.13832 36239 ft 476 kts 243°
2026-04-26 16:00 -32.26899 159.06827 36241 ft 478 kts 243°
2026-04-26 16:00 -32.29878 158.99872 36231 ft 479 kts 243°
2026-04-26 16:01 -32.32864 158.92887 36242 ft 479 kts 243°
2026-04-26 16:01 -32.35853 158.85881 36239 ft 479 kts 243°
2026-04-26 16:02 -32.38860 158.78821 36230 ft 479 kts 242°
2026-04-26 16:02 -32.41850 158.71787 36253 ft 481 kts 243°
2026-04-26 16:03 -32.44861 158.64686 36255 ft 483 kts 243°
2026-04-26 16:03 -32.47879 158.57557 36247 ft 484 kts 243°
2026-04-26 16:04 -32.50880 158.50452 36248 ft 485 kts 243°
2026-04-26 16:04 -32.53888 158.43319 36249 ft 485 kts 243°
2026-04-26 16:05 -32.56912 158.36134 36232 ft 486 kts 242°
2026-04-26 16:05 -32.59932 158.28941 36259 ft 487 kts 243°
2026-04-26 16:06 -32.62935 158.21775 36257 ft 488 kts 243°
2026-04-26 16:06 -32.65959 158.14544 36256 ft 489 kts 242°
2026-04-26 16:07 -32.68980 158.07306 36252 ft 489 kts 243°
2026-04-26 16:07 -32.71978 158.00107 36256 ft 488 kts 243°
2026-04-26 16:08 -32.74947 157.92966 36253 ft 488 kts 242°
2026-04-26 16:08 -32.77945 157.85738 36248 ft 488 kts 242°
2026-04-26 16:09 -32.80946 157.78488 36255 ft 488 kts 242°
2026-04-26 16:09 -32.83943 157.71232 36255 ft 488 kts 243°
2026-04-26 16:10 -32.91801 157.52141 36251 ft 488 kts 242°
2026-04-26 16:10 -33.09796 157.08003 36264 ft 489 kts 242°
2026-04-26 16:11 -33.33003 156.50277 36271 ft 489 kts 242°
2026-04-26 16:11 -33.55780 155.92632 36263 ft 489 kts 243°
2026-04-26 16:12 -33.78750 155.33479 36260 ft 486 kts 243°
2026-04-26 16:12 -33.84591 155.15946 36287 ft 489 kts 256°
2026-04-26 16:13 -33.85531 155.07865 36289 ft 490 kts 263°
2026-04-26 16:13 -33.86164 154.99796 36267 ft 490 kts 263°
2026-04-26 16:14 -33.86821 154.91694 36275 ft 489 kts 263°
2026-04-26 16:15 -33.87862 154.79445 36279 ft 489 kts 262°
2026-04-26 16:15 -33.88550 154.71335 36277 ft 489 kts 263°
2026-04-26 16:16 -33.89572 154.59100 36280 ft 488 kts 263°
2026-04-26 16:16 -33.90245 154.50984 36277 ft 488 kts 263°
2026-04-26 16:17 -33.90991 154.42913 36277 ft 487 kts 261°
2026-04-26 16:17 -33.91822 154.34801 36275 ft 487 kts 261°
2026-04-26 16:18 -33.93045 154.22666 36278 ft 486 kts 262°
2026-04-26 16:19 -33.94227 154.10576 36278 ft 485 kts 262°
2026-04-26 16:20 -33.95381 153.98620 36279 ft 485 kts 262°
2026-04-26 16:20 -33.96537 153.86524 36277 ft 485 kts 262°
2026-04-26 16:21 -33.97305 153.78431 36278 ft 484 kts 262°
2026-04-26 16:21 -33.98062 153.70391 36274 ft 484 kts 262°
2026-04-26 16:22 -33.98815 153.62332 36285 ft 483 kts 262°
2026-04-26 16:22 -33.99559 153.54317 36274 ft 483 kts 262°
2026-04-26 16:23 -34.00301 153.46260 36271 ft 482 kts 262°
2026-04-26 16:23 -34.00667 153.42265 36161 ft 476 kts 262°
2026-04-26 16:23 -34.01023 153.38363 35794 ft 469 kts 262°
2026-04-26 16:24 -34.01379 153.34449 35011 ft 471 kts 262°
2026-04-26 16:24 -34.01617 153.31830 34388 ft 475 kts 262°
2026-04-26 16:24 -34.02100 153.26503 32870 ft 485 kts 263°
2026-04-26 16:24 -34.02467 153.22435 31720 ft 491 kts 263°
2026-04-26 16:25 -34.02711 153.19716 31047 ft 494 kts 263°
2026-04-26 16:25 -34.03200 153.14242 30033 ft 490 kts 263°
2026-04-26 16:25 -34.03445 153.11479 29621 ft 486 kts 263°
2026-04-26 16:25 -34.03802 153.07455 29036 ft 479 kts 263°
2026-04-26 16:26 -34.04148 153.03527 28407 ft 474 kts 263°
2026-04-26 16:26 -34.04484 152.99717 27806 ft 470 kts 263°
2026-04-26 16:26 -34.04828 152.95805 27194 ft 466 kts 263°
2026-04-26 16:26 -34.05166 152.91936 26541 ft 463 kts 263°
2026-04-26 16:27 -34.05503 152.88073 25938 ft 460 kts 264°
2026-04-26 16:27 -34.05831 152.84300 25443 ft 454 kts 264°
2026-04-26 16:27 -34.06159 152.80513 24850 ft 452 kts 264°
2026-04-26 16:27 -34.06483 152.76749 24490 ft 448 kts 264°
2026-04-26 16:28 -34.06804 152.73010 24340 ft 453 kts 264°
2026-04-26 16:28 -34.07129 152.69211 24268 ft 454 kts 264°
2026-04-26 16:28 -34.07452 152.65432 24273 ft 451 kts 264°
2026-04-26 16:28 -34.07771 152.61685 24263 ft 448 kts 264°
2026-04-26 16:29 -34.08042 152.57937 24264 ft 446 kts 267°
2026-04-26 16:29 -34.08037 152.54237 24243 ft 433 kts 274°
2026-04-26 16:29 -34.07726 152.50695 24246 ft 415 kts 277°
2026-04-26 16:29 -34.07389 152.47327 24158 ft 402 kts 277°
2026-04-26 16:30 -34.07065 152.44075 23887 ft 381 kts 277°
2026-04-26 16:30 -34.06755 152.40909 23365 ft 375 kts 277°
2026-04-26 16:30 -34.06456 152.37796 22694 ft 372 kts 277°
2026-04-26 16:30 -34.06166 152.34745 21980 ft 369 kts 277°
2026-04-26 16:31 -34.05876 152.31674 21275 ft 366 kts 277°
2026-04-26 16:31 -34.05589 152.28632 20604 ft 363 kts 277°
2026-04-26 16:31 -34.05304 152.25619 19950 ft 360 kts 277°
2026-04-26 16:31 -34.05024 152.22663 19310 ft 357 kts 277°
2026-04-26 16:32 -34.04742 152.19696 18718 ft 353 kts 277°
2026-04-26 16:32 -34.04460 152.16728 18496 ft 358 kts 277°
2026-04-26 16:32 -34.04178 152.13770 18298 ft 356 kts 277°
2026-04-26 16:32 -34.03894 152.10804 18279 ft 355 kts 277°
2026-04-26 16:33 -34.03609 152.07833 18253 ft 356 kts 277°
2026-04-26 16:33 -34.03320 152.04870 18248 ft 353 kts 277°
2026-04-26 16:33 -34.03027 152.01939 18019 ft 350 kts 277°
2026-04-26 16:33 -34.02747 151.99179 17693 ft 347 kts 277°
2026-04-26 16:34 -34.02455 151.96305 17282 ft 345 kts 277°
2026-04-26 16:34 -34.02162 151.93426 16852 ft 344 kts 277°
2026-04-26 16:34 -34.01871 151.90567 16512 ft 340 kts 277°
2026-04-26 16:34 -34.01587 151.87783 16183 ft 337 kts 277°
2026-04-26 16:35 -34.01302 151.84986 15806 ft 335 kts 277°
2026-04-26 16:35 -34.01016 151.82193 15423 ft 333 kts 277°
2026-04-26 16:35 -34.00733 151.79427 15094 ft 330 kts 277°
2026-04-26 16:35 -34.00454 151.76718 14764 ft 328 kts 277°
2026-04-26 16:36 -34.00174 151.73994 14427 ft 325 kts 277°
2026-04-26 16:36 -33.99895 151.71290 14092 ft 323 kts 277°
2026-04-26 16:36 -33.99620 151.68621 13751 ft 313 kts 277°
2026-04-26 16:36 -33.99360 151.66109 13220 ft 299 kts 277°
2026-04-26 16:37 -33.99104 151.63647 12508 ft 293 kts 277°
2026-04-26 16:37 -33.98849 151.61185 11855 ft 297 kts 277°
2026-04-26 16:37 -33.98595 151.58748 11580 ft 294 kts 277°
2026-04-26 16:37 -33.98342 151.56323 11334 ft 289 kts 277°
2026-04-26 16:38 -33.98091 151.53925 11026 ft 287 kts 277°
2026-04-26 16:38 -33.97841 151.51532 10711 ft 286 kts 277°
2026-04-26 16:38 -33.97597 151.49209 10289 ft 278 kts 277°
2026-04-26 16:38 -33.97357 151.46917 9585 ft 274 kts 277°
2026-04-26 16:39 -33.97112 151.44599 9316 ft 283 kts 277°
2026-04-26 16:39 -33.96863 151.42238 9131 ft 283 kts 277°
2026-04-26 16:39 -33.96432 151.39951 8999 ft 279 kts 296°
2026-04-26 16:39 -33.95227 151.38143 9001 ft 280 kts 323°
2026-04-26 16:40 -33.93513 151.37129 8996 ft 276 kts 346°
2026-04-26 16:40 -33.91624 151.36625 9004 ft 279 kts 348°
2026-04-26 16:40 -33.89697 151.36144 9006 ft 282 kts 348°
2026-04-26 16:40 -33.87783 151.35667 8998 ft 282 kts 348°
2026-04-26 16:41 -33.85859 151.35183 8996 ft 282 kts 348°
2026-04-26 16:41 -33.83952 151.34697 8972 ft 277 kts 348°
2026-04-26 16:41 -33.82071 151.34213 9005 ft 276 kts 348°
2026-04-26 16:41 -33.80211 151.33732 9003 ft 279 kts 348°
2026-04-26 16:42 -33.78295 151.33235 9005 ft 280 kts 348°
2026-04-26 16:42 -33.76396 151.32743 8997 ft 278 kts 348°
2026-04-26 16:42 -33.74506 151.32254 8991 ft 277 kts 348°
2026-04-26 16:42 -33.72627 151.31769 8994 ft 276 kts 348°
2026-04-26 16:43 -33.70752 151.31283 8988 ft 273 kts 347°
2026-04-26 16:43 -33.69070 151.30360 8998 ft 273 kts 317°
2026-04-26 16:43 -33.68048 151.28425 9016 ft 280 kts 285°
2026-04-26 16:43 -33.67936 151.26096 8986 ft 282 kts 259°
2026-04-26 16:44 -33.68629 151.23919 9001 ft 278 kts 237°
2026-04-26 16:44 -33.69916 151.22265 9001 ft 274 kts 219°
2026-04-26 16:44 -33.71431 151.20845 9009 ft 277 kts 217°
2026-04-26 16:44 -33.72968 151.19443 9011 ft 277 kts 217°
2026-04-26 16:45 -33.74497 151.18030 9008 ft 277 kts 217°
2026-04-26 16:45 -33.76014 151.16605 9006 ft 276 kts 218°
2026-04-26 16:45 -33.77525 151.15168 9002 ft 276 kts 218°
2026-04-26 16:45 -33.79011 151.13741 8998 ft 276 kts 218°
2026-04-26 16:46 -33.80510 151.12294 9009 ft 276 kts 218°
2026-04-26 16:46 -33.82008 151.10843 9002 ft 276 kts 218°
2026-04-26 16:46 -33.83502 151.09392 9009 ft 275 kts 218°
2026-04-26 16:46 -33.84972 151.07963 9011 ft 275 kts 218°
2026-04-26 16:47 -33.86468 151.06514 9003 ft 273 kts 216°
2026-04-26 16:47 -33.88126 151.05423 8981 ft 271 kts 199°
2026-04-26 16:47 -33.89957 151.04871 8996 ft 272 kts 189°
2026-04-26 16:47 -33.91836 151.04526 8999 ft 273 kts 188°
2026-04-26 16:48 -33.93704 151.04218 9006 ft 275 kts 187°
2026-04-26 16:48 -33.95608 151.03900 9005 ft 276 kts 188°
2026-04-26 16:48 -33.97524 151.03567 8881 ft 280 kts 188°
2026-04-26 16:48 -33.99451 151.03223 8467 ft 275 kts 188°
2026-04-26 16:49 -34.01287 151.02888 8077 ft 266 kts 188°
2026-04-26 16:49 -34.03116 151.02551 7711 ft 265 kts 188°
2026-04-26 16:49 -34.04934 151.02212 7350 ft 263 kts 188°
2026-04-26 16:49 -34.06726 151.01877 6992 ft 262 kts 188°
2026-04-26 16:50 -34.08527 151.01539 6644 ft 260 kts 188°
2026-04-26 16:50 -34.10319 151.01201 6267 ft 259 kts 188°
2026-04-26 16:50 -34.12094 151.00866 6014 ft 256 kts 188°
2026-04-26 16:50 -34.13841 151.00536 6013 ft 257 kts 188°
2026-04-26 16:51 -34.15613 151.00201 6004 ft 258 kts 188°
2026-04-26 16:51 -34.17322 150.99878 5981 ft 256 kts 188°
2026-04-26 16:51 -34.19095 150.99543 5736 ft 258 kts 188°
2026-04-26 16:51 -34.20866 150.99207 5484 ft 252 kts 188°
2026-04-26 16:52 -34.22525 150.99249 5295 ft 235 kts 163°
2026-04-26 16:52 -34.23515 150.99788 5175 ft 228 kts 149°
2026-04-26 16:52 -34.25113 151.01426 4855 ft 229 kts 136°
2026-04-26 16:52 -34.26247 151.02794 4605 ft 232 kts 136°
2026-04-26 16:53 -34.27206 151.04351 4302 ft 235 kts 110°
2026-04-26 16:53 -34.27237 151.06299 4117 ft 233 kts 79°
2026-04-26 16:53 -34.26871 151.08201 4070 ft 232 kts 79°
2026-04-26 16:53 -34.26534 151.10115 4009 ft 233 kts 79°
2026-04-26 16:54 -34.26215 151.12010 3997 ft 232 kts 80°
2026-04-26 16:54 -34.25902 151.13938 3995 ft 233 kts 81°
2026-04-26 16:54 -34.25595 151.15870 3994 ft 233 kts 81°
2026-04-26 16:54 -34.25294 151.17777 3984 ft 233 kts 81°
2026-04-26 16:55 -34.24992 151.19706 3986 ft 232 kts 81°
2026-04-26 16:55 -34.24687 151.21610 3997 ft 232 kts 78°
2026-04-26 16:55 -34.23925 151.23313 3981 ft 234 kts 45°
2026-04-26 16:55 -34.22496 151.24209 3987 ft 236 kts 10°
2026-04-26 16:56 -34.19220 151.23913 3997 ft 240 kts 352°
2026-04-26 16:56 -34.17603 151.23577 3985 ft 227 kts 349°
2026-04-26 16:56 -34.16106 151.23204 3909 ft 215 kts 348°
2026-04-26 16:57 -34.14662 151.22827 3629 ft 206 kts 348°
2026-04-26 16:57 -34.13318 151.22473 3368 ft 192 kts 348°
2026-04-26 16:57 -34.10973 151.21858 2901 ft 155 kts 348°
2026-04-26 16:58 -34.09973 151.21597 2698 ft 141 kts 348°
2026-04-26 16:58 -34.09341 151.21432 2594 ft 140 kts 348°
2026-04-26 16:58 -34.07093 151.20845 2165 ft 142 kts 348°
2026-04-26 16:59 -34.06125 151.20593 1981 ft 140 kts 348°
2026-04-26 16:59 -34.04228 151.20098 1600 ft 139 kts 348°
2026-04-26 17:00 -34.02353 151.19608 1219 ft 137 kts 347°
2026-04-26 17:00 -34.00462 151.19115 854 ft 139 kts 347°
2026-04-26 17:00 -33.99523 151.18870 672 ft 136 kts 347°
2026-04-26 17:01 -33.98593 151.18628 483 ft 137 kts 347°
2026-04-26 17:01 -33.97676 151.18391 317 ft 136 kts 347°
2026-04-26 17:01 -33.96754 151.18151 108 ft 134 kts 347°
2026-04-26 17:01 -33.95858 151.17918 29 ft 125 kts 347°
2026-04-26 17:02 -33.95169 151.17739 30 ft 75 kts 348°
2026-04-26 17:02 -33.94838 151.17654 28 ft 25 kts 348°
2026-04-26 17:02 -33.94635 151.17596 29 ft 14 kts 338°
2026-04-26 17:02 -33.94555 151.17553 30 ft 27 kts 334°
2026-04-26 17:03 -33.94458 151.17488 29 ft 0 kts 325°
2026-04-26 17:03 -33.94378 151.17411 30 ft 20 kts 317°
2026-04-26 17:03 -33.94356 151.17386 29 ft 10 kts 316°
2026-04-26 17:04 -33.94271 151.17309 28 ft 18 kts 337°
2026-04-26 17:04 -33.94229 151.17292 27 ft 20 kts 343°
2026-04-26 17:04 -33.94106 151.17253 27 ft 7 kts 328°
2026-04-26 17:04 -33.94078 151.17192 27 ft 10 kts 276°
2026-04-26 17:05 -33.94085 151.17129 31 ft 13 kts 257°
2026-04-26 17:05 -33.94126 151.16962 26 ft 17 kts 253°
2026-04-26 17:05 -33.94134 151.16925 27 ft 3 kts 258°
2026-04-26 17:06 -33.94135 151.16920 27 ft 1 kts 259°
2026-04-26 17:06 -33.94136 151.16889 27 ft 2 kts 274°
2026-04-26 17:06 -33.94126 151.16859 27 ft 5 kts 300°
2026-04-26 17:06 -33.94093 151.16830 27 ft 7 kts 337°
2026-04-26 17:07 -33.94025 151.16805 29 ft 12 kts 344°
2026-04-26 17:07 -33.93938 151.16775 29 ft 3 kts 344°
2026-04-26 17:08 -33.93928 151.16771 29 ft 0 kts 345°
2026-04-26 17:08 -33.93887 151.16757 29 ft 9 kts 343°
2026-04-26 17:08 -33.93825 151.16734 28 ft 8 kts 345°
2026-04-26 17:09 -33.93790 151.16750 30 ft 5 kts 54°
2026-04-26 17:09 -33.93784 151.16766 30 ft 7 kts 68°
2026-04-26 17:09 -33.93766 151.16819 31 ft 5 kts 72°
2026-04-26 17:09 -33.93766 151.16821 31 ft 0 kts 72°